Angel Fire, NM

5:52 AM MST on February 27, 2017 (GMT -0700)
Angel Fire

Weather History for KAXX - March, 2014

Change the Weather History Date:

Friday, March 7, 2014

  Actual Average (KSKX) Record (KSKX)
Temperature  
Mean Temperature 36 °F -  
Max Temperature 46 °F 48 °F 62 °F (2013)
Min Temperature 26 °F 18 °F 6 °F (2008)
Degree Days  
Heating Degree Days 29    
Moisture  
Dew Point 22 °F    
Average Humidity 59    
Maximum Humidity 93    
Minimum Humidity 34    
Precipitation  
Precipitation 0.00 in - - ()
Sea Level Pressure  
Sea Level Pressure 29.96 in    
Wind  
Wind Speed 7 mph (WSW)    
Max Wind Speed 24 mph    
Max Gust Speed 30 mph    
Visibility 9 miles    
Events Snow    
Averages and records for this station are not official NWS values.
T = Trace of Precipitation, MM = Missing Value Source: NWS Daily Summary

Daily Weather History Graph

Daily Weather History Graph

Search for Another Location

Airport or City:

Trip Planner

Search our weather history database for the weather conditions in past years. The results will help you decide how hot, cold, wet, or windy it might be!

Date:

Astronomy

Mar. 07, 2014 Rise Set
Actual Time 6:23 AM MST 6:01 PM MST
Civil Twilight 5:57 AM MST 6:27 PM MST
Nautical Twilight 5:27 AM MST 6:57 PM MST
Astronomical Twilight 4:57 AM MST 7:26 PM MST
Moon 10:28 AM MST (3/7) No Moon Set
Length of Visible Light 12h 29m
Length of Day
11h 38m
Waxing Crescent, 42% of the Moon is Illuminated
Mar 7
Waxing Crescent
Mar 8
First Quarter
Mar 16
Full
Mar 23
Last Quarter
Mar 30
New

Hourly Weather History & Observations

Time (MST) Temp. Windchill Dew Point Humidity Pressure Visibility Wind Dir Wind Speed Gust Speed Precip Events Conditions
12:16 AM 37.4 °F 33.8 °F 15.8 °F 41% 30.00 in 10.0 mi ENE 4.6 mph - N/A   Mostly Cloudy
12:36 AM 37.4 °F 33.8 °F 15.8 °F 41% 30.00 in 10.0 mi NW 4.6 mph - N/A   Overcast
12:56 AM 37.4 °F 33.8 °F 15.8 °F 41% 30.00 in 10.0 mi North 4.6 mph - N/A   Overcast
1:16 AM 37.4 °F 34.9 °F 15.8 °F 41% 30.00 in 10.0 mi North 3.5 mph - N/A   Overcast
1:36 AM 37.4 °F 33.8 °F 14.0 °F 38% 29.98 in 10.0 mi WNW 4.6 mph - N/A   Overcast
1:56 AM 37.4 °F 32.1 °F 15.8 °F 41% 29.96 in 10.0 mi West 6.9 mph - N/A   Overcast
2:16 AM 37.4 °F 29.8 °F 15.8 °F 41% 29.95 in 10.0 mi West 11.5 mph 18.4 mph N/A   Scattered Clouds
2:36 AM 37.4 °F 29.3 °F 15.8 °F 41% 29.93 in 10.0 mi West 12.7 mph 23.0 mph N/A   Clear
2:56 AM 39.2 °F 31.2 °F 17.6 °F 42% 29.92 in 10.0 mi West 13.8 mph 23.0 mph N/A   Clear
3:16 AM 37.4 °F 30.8 °F 17.6 °F 45% 29.93 in 10.0 mi NW 9.2 mph - N/A   Clear
3:36 AM 37.4 °F 31.4 °F 15.8 °F 41% 29.95 in 10.0 mi NNW 8.1 mph 19.6 mph N/A   Clear
3:56 AM 35.6 °F - 15.8 °F 44% 29.95 in 10.0 mi Calm Calm - N/A   Clear
4:16 AM 35.6 °F - 17.6 °F 48% 29.95 in 10.0 mi Calm Calm - N/A   Clear
4:36 AM 32.0 °F - 19.4 °F 60% 29.95 in 10.0 mi Calm Calm - N/A   Clear
4:56 AM 32.0 °F - 19.4 °F 60% 29.94 in 10.0 mi Calm Calm - N/A   Clear
5:16 AM 33.8 °F 27.7 °F 19.4 °F 56% 29.95 in 10.0 mi WSW 6.9 mph - N/A   Clear
5:36 AM 33.8 °F - 19.4 °F 56% 29.95 in 10.0 mi Calm Calm - N/A   Clear
5:56 AM 30.2 °F 22.6 °F 19.4 °F 64% 29.95 in 10.0 mi South 8.1 mph - N/A   Clear
6:16 AM 32.0 °F 27.5 °F 19.4 °F 60% 29.94 in 10.0 mi East 4.6 mph - N/A   Clear
6:36 AM 33.8 °F 28.6 °F 21.2 °F 60% 29.95 in 10.0 mi West 5.8 mph - N/A   Clear
6:56 AM 28.4 °F - 21.2 °F 74% 29.94 in 10.0 mi Calm Calm - N/A   Clear
7:16 AM 32.0 °F - 21.2 °F 64% 29.95 in 10.0 mi Calm Calm - N/A   Clear
7:36 AM 33.8 °F - 21.2 °F 60% 29.95 in 10.0 mi Calm Calm - N/A   Clear
7:56 AM 37.4 °F - 21.2 °F 52% 29.94 in 10.0 mi Calm Calm - N/A   Clear
8:16 AM 39.2 °F - 21.2 °F 49% 29.95 in 10.0 mi Calm Calm - N/A   Clear
8:36 AM 42.8 °F 38.0 °F 19.4 °F 39% 29.95 in 10.0 mi West 8.1 mph - N/A   Clear
8:56 AM 42.8 °F 40.1 °F 19.4 °F 39% 29.95 in 10.0 mi SW 4.6 mph - N/A   Clear
9:16 AM 44.6 °F 38.8 °F 19.4 °F 37% 29.96 in 10.0 mi WSW 11.5 mph 17.3 mph N/A   Clear
9:39 AM 42.8 °F 34.5 °F 19.4 °F 39% 29.95 in 10.0 mi WSW 18.4 mph 23.0 mph N/A   Scattered Clouds
9:56 AM 44.6 °F 37.4 °F 19.4 °F 37% 29.95 in 10.0 mi WSW 16.1 mph 20.7 mph N/A   Scattered Clouds
10:16 AM 44.6 °F 38.1 °F 19.4 °F 37% 29.95 in 10.0 mi WSW 13.8 mph 17.3 mph N/A   Clear
10:36 AM 44.6 °F 37.8 °F 19.4 °F 37% 29.95 in 10.0 mi WSW 15.0 mph 19.6 mph N/A   Scattered Clouds
10:56 AM 44.6 °F 38.8 °F 19.4 °F 37% 29.95 in 10.0 mi WSW 11.5 mph 16.1 mph N/A   Mostly Cloudy
11:16 AM 46.4 °F 41.9 °F 19.4 °F 34% 29.95 in 10.0 mi WSW 9.2 mph - N/A   Mostly Cloudy
11:36 AM 46.4 °F 41.5 °F 21.2 °F 37% 29.94 in 10.0 mi SSW 10.4 mph 19.6 mph N/A   Mostly Cloudy
11:56 AM 46.4 °F 40.7 °F 23.0 °F 40% 29.93 in 10.0 mi SSW 12.7 mph 18.4 mph N/A   Overcast
12:16 PM 46.4 °F 41.1 °F 21.2 °F 37% 29.93 in 10.0 mi SW 11.5 mph 16.1 mph N/A   Mostly Cloudy
12:36 PM 46.4 °F 40.1 °F 21.2 °F 37% 29.93 in 10.0 mi WSW 15.0 mph 21.9 mph N/A   Mostly Cloudy
12:56 PM 44.6 °F 38.4 °F 21.2 °F 39% 29.92 in 10.0 mi SW 12.7 mph 21.9 mph N/A   Overcast
1:16 PM 44.6 °F 37.4 °F 23.0 °F 43% 29.91 in 10.0 mi WSW 16.1 mph 21.9 mph N/A   Overcast
1:36 PM 42.8 °F 33.3 °F 26.6 °F 53% 29.92 in 10.0 mi WSW 24.2 mph 29.9 mph N/A   Overcast
1:58 PM 37.4 °F 28.5 °F 32.0 °F 81% 29.93 in 4.0 mi WSW 15.0 mph 21.9 mph N/A Snow Light Snow
2:16 PM 35.6 °F 28.0 °F 33.8 °F 93% 29.94 in 4.0 mi WSW 10.4 mph 16.1 mph N/A Snow Light Snow
2:36 PM 37.4 °F 28.9 °F 30.2 °F 75% 29.93 in 10.0 mi SW 13.8 mph - N/A   Overcast
2:56 PM 41.0 °F 35.2 °F 28.4 °F 61% 29.93 in 10.0 mi SW 9.2 mph - N/A   Scattered Clouds
3:16 PM 39.2 °F 33.0 °F 28.4 °F 65% 29.93 in 10.0 mi WSW 9.2 mph 16.1 mph N/A   Mostly Cloudy
3:36 PM 39.2 °F 33.6 °F 26.6 °F 61% 29.93 in 10.0 mi WSW 8.1 mph - N/A   Mostly Cloudy
3:56 PM 41.0 °F 33.1 °F 26.6 °F 57% 29.92 in 10.0 mi WSW 15.0 mph 18.4 mph N/A   Scattered Clouds
4:16 PM 42.8 °F 37.0 °F 26.6 °F 53% 29.91 in 10.0 mi SSW 10.4 mph 18.4 mph N/A   Mostly Cloudy
4:36 PM 39.2 °F 33.6 °F 24.8 °F 56% 29.92 in 10.0 mi SW 8.1 mph - N/A   Mostly Cloudy
4:56 PM 37.4 °F 32.1 °F 28.4 °F 70% 29.92 in 5.0 mi WSW 6.9 mph 16.1 mph N/A Snow Light Snow
5:16 PM 37.4 °F 28.9 °F 24.8 °F 60% 29.93 in 10.0 mi West 13.8 mph 19.6 mph N/A   Scattered Clouds
5:36 PM 35.6 °F 27.1 °F 26.6 °F 70% 29.93 in 10.0 mi West 12.7 mph 23.0 mph N/A   Scattered Clouds
5:56 PM 35.6 °F 27.1 °F 26.6 °F 70% 29.95 in 10.0 mi West 12.7 mph 18.4 mph N/A   Scattered Clouds
6:16 PM 35.6 °F 27.1 °F 24.8 °F 65% 29.97 in 10.0 mi West 12.7 mph 18.4 mph N/A   Clear
6:36 PM 35.6 °F 28.6 °F 24.8 °F 65% 29.96 in 10.0 mi West 9.2 mph - N/A   Mostly Cloudy
6:56 PM 33.8 °F 26.4 °F 24.8 °F 70% 29.95 in 10.0 mi West 9.2 mph 17.3 mph N/A   Scattered Clouds
7:16 PM 33.8 °F 25.3 °F 24.8 °F 70% 29.95 in 10.0 mi WSW 11.5 mph - N/A   Clear
7:36 PM 33.8 °F 26.4 °F 26.6 °F 75% 29.97 in 2.5 mi WSW 9.2 mph - N/A Snow Light Snow
7:56 PM 30.2 °F 26.7 °F 28.4 °F 93% 29.98 in 2.0 mi SW 3.5 mph - N/A Snow Light Snow
8:16 PM 30.2 °F 25.4 °F 28.4 °F 93% 29.98 in 5.0 mi SSE 4.6 mph - N/A Snow Light Snow
8:36 PM 32.0 °F 24.8 °F 28.4 °F 87% 30.00 in 7.0 mi SE 8.1 mph - N/A Snow Light Snow
8:56 PM 32.0 °F 27.5 °F 26.6 °F 80% 30.01 in 10.0 mi WSW 4.6 mph - N/A   Mostly Cloudy
9:18 PM 32.0 °F 28.7 °F 28.4 °F 87% 30.02 in 10.0 mi SSE 3.5 mph - N/A   Mostly Cloudy
9:36 PM 30.2 °F 26.7 °F 26.6 °F 86% 30.02 in 10.0 mi ENE 3.5 mph - N/A   Overcast
9:56 PM 28.4 °F 18.5 °F 26.6 °F 93% 30.04 in 1.8 mi North 11.5 mph 17.3 mph N/A Snow Light Snow
10:16 PM 28.4 °F 18.5 °F 26.6 °F 93% 30.05 in 4.0 mi North 11.5 mph - N/A Snow Light Snow
10:36 PM 26.6 °F 15.7 °F 24.8 °F 93% 30.05 in 2.5 mi North 12.7 mph - N/A Snow Light Snow
10:56 PM 26.6 °F 16.2 °F 24.8 °F 93% 30.07 in 2.5 mi North 11.5 mph - N/A Snow Light Snow
11:16 PM 26.6 °F 17.5 °F 23.0 °F 86% 30.07 in 5.0 mi NNW 9.2 mph - N/A Snow Light Snow
11:36 PM 26.6 °F 19.1 °F 23.0 °F 86% 30.07 in 10.0 mi North 6.9 mph - N/A Snow Light Snow
11:56 PM 26.6 °F 17.5 °F 21.2 °F 80% 30.07 in 7.0 mi North 9.2 mph - N/A Snow Light Snow